Simultaneous Nadir Overpasses (SNOs) Predictions

Prediction of SNOs near equator between AQUA and NPP Satellite Orbit:

Table of predicted SNOs near equator for the next 14.0 days since TLE Epoch: 8/6/2016
Index Date (AQUA) Time (AQUA) AQUA Lat,Lon Date (NPP) Time (NPP) NPP Lat,Lon Distance(km) Time Diff (sec)
1 08/09/2016 07:51:52 3.55, 85.33 08/09/2016 07:42:36 3.52, 85.26 8.12 556
2 08/09/2016 08:39:58 1.04,-106.04 08/09/2016 08:31:58 1.10,-106.37 37.98 480
3 08/09/2016 09:28:14 -5.58, 62.55 08/09/2016 09:21:29 -5.70, 61.95 67.44 405
4 08/09/2016 10:16:21 10.11,-128.82 08/09/2016 10:10:52 10.26,-129.68 96.25 329
5 08/11/2016 23:23:49 -21.61, 29.60 08/11/2016 23:13:49 -21.62, 29.53 7.06 600
6 08/12/2016 00:07:57 2.13,-158.49 08/11/2016 23:59:05 2.07,-158.64 17.76 532
7 08/12/2016 00:56:03 2.47, 10.15 08/12/2016 00:48:27 2.56, 9.73 47.43 456
8 08/12/2016 01:44:19 -7.00, 178.73 08/12/2016 01:37:58 -7.15, 178.06 76.70 381
9 08/14/2016 15:36:07 -6.56, 148.82 08/14/2016 15:26:25 -6.56, 148.84 1.24 582
10 08/14/2016 16:23:59 0.59, -42.28 08/14/2016 16:15:32 0.56, -42.52 27.08 507
11 08/14/2016 17:12:07 3.89, 126.33 08/14/2016 17:04:55 4.01, 125.83 56.92 432
12 08/14/2016 18:00:22 -8.47, -65.07 08/14/2016 17:54:25 -8.66, -65.83 85.83 357
13 08/17/2016 07:51:48 -3.70, -94.69 08/17/2016 07:42:30 -3.70, -94.75 6.86 558
14 08/17/2016 08:40:03 -0.87, 73.91 08/17/2016 08:32:00 -0.94, 73.59 36.54 483
15 08/17/2016 09:28:10 5.42,-117.47 08/17/2016 09:21:23 5.51,-118.06 66.33 407
16 08/17/2016 10:16:25 -10.00, 51.14 08/17/2016 10:10:53 -10.16, 50.29 94.78 332
17 08/19/2016 23:25:16 26.78,-151.67 08/19/2016 23:15:16 26.80,-151.80 12.50 600
18 08/20/2016 00:07:52 -2.24, 21.51 08/19/2016 23:58:58 -2.20, 21.36 16.28 534
19 08/20/2016 00:56:07 -2.33,-169.90 08/20/2016 00:48:28 -2.44,-170.30 46.16 459
20 08/20/2016 01:44:14 6.88, -1.27 08/20/2016 01:37:51 7.02, -1.94 75.53 383




NCC Satellite Simultaneous Nadir Overpasses (SNOs) Prediction Service
